Carbondale, IL

6:55 PM CST on December 12, 2017 (GMT -0600)
Southern Illinois

Weather History for KMDH - March, 2014

Change the Weather History Date:

Monday, March 24, 2014

  Actual Average Record
Temperature  
Mean Temperature 34 °F -  
Max Temperature 46 °F 59 °F 90 °F (1929)
Min Temperature 23 °F 34 °F 3 °F (1974)
Degree Days  
Heating Degree Days 30    
Moisture  
Dew Point 22 °F    
Average Humidity 66    
Maximum Humidity 92    
Minimum Humidity 29    
Precipitation  
Precipitation 0.00 in - - ()
Sea Level Pressure  
Sea Level Pressure 30.27 in    
Wind  
Wind Speed 5 mph (NNE)    
Max Wind Speed 12 mph    
Max Gust Speed 21 mph    
Visibility 7 miles    
Events Snow    
Averages and records for this station are not official NWS values.
T = Trace of Precipitation, MM = Missing Value Source: NWS Daily Summary

Daily Weather History Graph

Daily Weather History Graph

Search for Another Location

Airport or City:

Trip Planner

Search our weather history database for the weather conditions in past years. The results will help you decide how hot, cold, wet, or windy it might be!

Date:

Astronomy

Mar. 24, 2014 Rise Set
Actual Time 6:54 AM CDT 7:12 PM CDT
Civil Twilight 6:28 AM CDT 7:38 PM CDT
Nautical Twilight 5:57 AM CDT 8:09 PM CDT
Astronomical Twilight 5:26 AM CDT 8:41 PM CDT
Moon 2:18 AM CDT (3/24) 12:43 PM CDT (3/24)
Length of Visible Light 13h 10m
Length of Day
12h 18m
Last Quarter, 43% of the Moon is Illuminated
Mar 24
Last Quarter
Mar 30
New
Apr 7
First Quarter
Apr 15
Full
Apr 22
Last Quarter

Hourly Weather History & Observations

Time (CDT) Temp. Windchill Dew Point Humidity Pressure Visibility Wind Dir Wind Speed Gust Speed Precip Events Conditions
12:52 AM 26.1 °F - 17.1 °F 69% 30.38 in 10.0 mi Calm Calm - N/A   Clear
1:52 AM 26.1 °F 20.5 °F 17.1 °F 69% 30.38 in 10.0 mi NE 4.6 mph - N/A   Clear
2:52 AM 25.0 °F 20.7 °F 19.0 °F 78% 30.37 in 10.0 mi NNE 3.5 mph - N/A   Clear
3:52 AM 25.0 °F 18.1 °F 15.1 °F 66% 30.35 in 10.0 mi NE 5.8 mph - N/A   Clear
4:52 AM 25.0 °F 18.1 °F 17.1 °F 72% 30.35 in 10.0 mi ENE 5.8 mph - N/A   Clear
5:52 AM 25.0 °F 18.1 °F 16.0 °F 69% 30.35 in 10.0 mi ENE 5.8 mph - N/A   Clear
6:52 AM 23.0 °F 15.8 °F 16.0 °F 74% 30.38 in 10.0 mi NE 5.8 mph - N/A   Clear
7:52 AM 28.0 °F 22.8 °F 18.0 °F 66% 30.39 in 10.0 mi NE 4.6 mph - N/A   Partly Cloudy
8:52 AM 30.9 °F 25.2 °F 19.0 °F 61% 30.39 in 10.0 mi ENE 5.8 mph - N/A   Partly Cloudy
9:52 AM 36.0 °F 30.3 °F 18.0 °F 48% 30.36 in 10.0 mi East 6.9 mph - N/A   Clear
10:52 AM 39.9 °F 33.9 °F 16.0 °F 38% 30.35 in 10.0 mi ENE 9.2 mph - N/A   Clear
11:52 AM 43.0 °F 38.2 °F 16.0 °F 34% 30.33 in 10.0 mi ENE 8.1 mph - N/A   Scattered Clouds
12:52 PM 43.0 °F 38.2 °F 15.1 °F 32% 30.30 in 10.0 mi ENE 8.1 mph - N/A   Mostly Cloudy
1:52 PM 43.0 °F 40.3 °F 14.0 °F 31% 30.27 in 10.0 mi Variable 4.6 mph - N/A   Overcast
2:52 PM 45.0 °F 40.6 °F 14.0 °F 29% 30.24 in 10.0 mi North 8.1 mph - N/A   Overcast
3:52 PM 46.0 °F 40.6 °F 16.0 °F 30% 30.20 in 10.0 mi North 11.5 mph - N/A   Overcast
4:52 PM 44.1 °F 39.0 °F 16.0 °F 32% 30.19 in 10.0 mi NNE 9.2 mph - N/A   Mostly Cloudy
5:52 PM 42.1 °F 37.1 °F 17.1 °F 37% 30.19 in 10.0 mi North 8.1 mph - N/A   Overcast
6:52 PM 39.0 °F 31.8 °F 23.0 °F 53% 30.20 in 10.0 mi North 11.5 mph 20.7 mph N/A   Overcast
7:52 PM 35.1 °F 28.6 °F 28.0 °F 76% 30.22 in 10.0 mi North 8.1 mph - N/A   Overcast
8:49 PM 33.8 °F 26.4 °F 28.4 °F 81% 30.21 in 2.5 mi North 9.2 mph - 0.00 in Snow Light Snow
8:50 PM 34.0 °F 26.6 °F 28.9 °F 82% 30.22 in 2.5 mi North 9.2 mph - 0.00 in Snow Light Snow
9:08 PM 33.1 °F 26.1 °F 28.9 °F 85% 30.21 in 1.8 mi North 8.1 mph - 0.00 in Snow Light Snow
9:20 PM 33.1 °F 26.9 °F 28.9 °F 85% 30.21 in 1.8 mi North 6.9 mph - 0.00 in Snow Light Snow
9:48 PM 33.8 °F - 30.2 °F 87% 30.20 in 2.0 mi Calm Calm - 0.00 in Snow Light Snow
9:52 PM 33.1 °F - 30.0 °F 89% 30.21 in 2.5 mi Calm Calm - 0.00 in Snow Light Snow
10:08 PM 32.0 °F - 30.0 °F 92% 30.20 in 3.0 mi Calm Calm - 0.00 in Snow Light Snow
10:22 PM 33.1 °F 30.0 °F 30.0 °F 89% 30.20 in 3.0 mi NNW 3.5 mph - 0.00 in   Overcast
10:39 PM 33.1 °F - 30.0 °F 89% 30.20 in 3.0 mi Calm Calm - 0.00 in Snow Light Snow
10:52 PM 33.1 °F - 30.0 °F 89% 30.21 in 4.0 mi Calm Calm - 0.00 in   Overcast
11:19 PM 33.1 °F - 30.0 °F 89% 30.19 in 4.0 mi Calm Calm - N/A   Overcast
11:52 PM 33.1 °F - 28.9 °F 85% 30.19 in 2.5 mi Calm Calm - 0.00 in Snow Light Snow